Theta_e
279 279 279 279 279 279 278 277 276 276 275 275 274 274 274 274 274 273 273 273 273 273 272 271 271 271 271 271 271 271 270 270 270 271 271 271 272 272 272 271 271 271 271 271 271 271 271 271 271 271 271 271 270 270 270 271 271 270 270 271 272 272
279 278 278 278 277 277 277 276 275 275 275 275 275 275 274 273 272 272 272 272 272 271 271 271 271 271 271 271 270 270 270 270 270 270 270 271 271 271 271 271 271 271 270 271 271 271 271 271 271 271 270 270 270 270 270 270 270 270 270 271 272 274
278 278 278 278 277 277 276 275 275 275 274 274 274 273 272 272 272 272 271 271 271 271 270 270 270 270 270 270 270 269 269 270 271 270 271 271 270 271 270 270 270 270 271 270 270 270 270 270 270 270 270 270 269 270 270 270 270 270 270 271 271 273
278 277 277 276 276 276 275 275 274 274 273 273 273 272 272 271 271 271 270 270 270 269 269 269 269 269 269 269 269 269 269 269 270 270 270 270 270 270 270 270 270 270 270 269 269 269 269 270 270 270 270 269 269 269 270 270 270 270 270 270 269 270
278 277 276 276 276 275 274 274 274 274 273 272 272 271 271 271 271 270 270 269 269 269 269 269 268 269 268 268 268 269 269 269 269 270 269 269 269 270 270 269 269 269 269 268 268 269 268 269 269 269 269 269 269 269 269 270 270 270 270 269 270 270
277 277 276 276 275 274 274 274 274 273 272 272 272 271 271 270 270 270 269 269 268 268 268 268 268 268 268 268 268 268 268 269 269 269 269 269 269 268 268 268 268 268 268 267 267 267 268 268 268 268 268 269 269 269 269 269 270 270 271 271 270 270
277 277 277 276 275 274 274 273 273 272 272 271 271 270 270 270 269 269 268 268 267 267 267 267 267 267 267 267 268 268 268 268 268 268 268 267 267 267 267 267 267 267 267 266 266 266 267 267 267 267 267 268 269 269 269 269 269 269 270 271 272 273
277 276 276 276 275 274 273 273 272 272 271 271 270 269 269 269 268 268 267 267 266 266 266 266 266 267 267 267 267 267 267 268 267 267 267 266 266 266 266 266 266 266 266 266 266 266 266 266 267 267 267 267 268 269 269 269 269 269 270 270 270 270
276 276 275 275 274 273 273 272 271 270 270 270 269 269 268 268 267 267 266 266 266 266 266 266 266 266 266 266 267 267 267 266 266 265 265 265 265 265 264 265 265 265 266 265 266 266 266 266 266 266 267 267 268 268 268 269 269 269 270 270 271 271
276 275 274 274 273 272 272 271 270 270 269 268 268 268 267 267 267 266 265 265 265 265 265 266 266 266 266 266 266 266 265 265 265 265 264 264 264 264 264 264 264 265 265 265 265 266 266 266 266 266 267 267 268 268 268 269 269 269 269 270 270 270
276 275 273 273 272 271 270 268 268 268 268 268 268 267 267 267 266 265 265 264 265 265 265 266 266 266 266 266 265 264 264 264 264 264 263 263 263 264 264 264 264 264 265 265 265 266 266 266 266 267 267 267 268 268 268 269 269 269 269 270 270 270
275 274 273 272 271 270 269 268 268 268 267 267 267 267 267 265 264 263 264 264 264 265 265 265 265 265 264 264 263 263 263 263 262 262 262 262 263 263 264 264 264 265 265 265 265 266 266 266 267 269 272 274 271 270 270 270 270 270 270 270 270 271
274 273 272 271 270 269 268 267 267 266 266 266 266 266 265 264 263 263 263 263 263 264 264 264 264 263 262 262 262 261 261 261 261 261 261 262 262 263 263 264 264 265 266 265 265 265 266 267 267 272 274 275 276 274 272 272 272 272 272 272 272 272
273 272 271 270 269 268 267 266 266 265 265 266 265 265 264 263 263 262 262 262 263 263 263 262 262 261 261 261 260 260 260 260 260 260 261 261 262 263 264 264 265 265 265 265 265 265 266 267 271 274 275 276 277 277 274 273 273 273 273 273 272 272
273 272 271 269 268 267 266 266 265 265 265 265 265 263 262 262 262 262 262 262 262 262 262 261 260 259 259 259 259 259 259 259 260 260 261 261 263 264 264 264 264 264 264 264 264 264 265 266 271 273 275 276 277 277 277 274 274 274 274 274 273 273
273 272 270 269 268 267 266 266 265 265 265 264 263 262 262 261 261 261 261 261 261 261 260 260 258 258 258 259 259 259 259 259 259 260 262 263 263 263 263 263 263 263 263 264 264 264 264 265 269 273 275 276 277 278 278 275 275 275 274 274 274 274
272 270 268 267 266 266 265 265 264 264 263 262 261 261 260 260 260 260 260 260 260 259 259 258 258 257 258 258 258 258 258 259 260 261 262 262 263 262 262 262 262 262 262 263 263 263 264 265 271 274 275 276 277 278 278 275 276 276 275 275 274 274
270 268 267 267 266 265 265 264 263 262 261 261 261 260 260 259 258 259 259 258 258 258 258 257 257 257 257 257 257 257 258 259 260 260 262 262 262 262 262 262 262 261 261 262 263 263 264 265 272 273 275 276 277 279 276 276 276 275 275 275 275 275
269 268 267 266 265 264 263 263 261 260 260 260 259 259 258 258 257 257 258 257 257 257 257 257 256 256 256 257 257 257 258 259 259 260 261 261 261 261 261 260 261 261 262 262 263 263 264 265 269 273 275 276 277 277 275 276 275 275 274 274 275 275
267 266 265 264 264 263 262 261 260 260 259 258 258 257 258 257 256 257 256 257 257 256 256 256 256 255 256 256 256 257 258 259 260 260 261 260 260 260 260 260 261 261 262 262 263 264 264 266 269 274 275 276 277 277 274 274 275 274 274 274 274 274
266 265 264 263 262 262 261 261 260 259 258 258 258 258 257 256 256 256 256 256 256 256 256 256 255 255 255 255 256 257 257 258 259 259 260 260 260 260 260 261 261 261 262 263 264 268 267 266 268 273 274 276 277 275 274 274 274 274 274 274 273 274
264 263 262 261 261 261 260 260 259 258 258 258 258 257 256 256 256 256 256 256 256 255 255 255 254 255 255 255 256 257 258 259 259 259 259 259 259 259 260 261 261 262 263 264 265 265 266 266 267 270 275 276 276 277 274 274 274 273 274 274 273 273
264 262 262 261 261 260 260 259 258 257 257 257 257 256 256 256 256 255 255 255 254 254 254 254 254 254 255 256 256 258 258 258 258 258 258 258 259 259 260 261 262 263 263 265 265 266 267 268 269 270 274 275 276 277 276 274 274 274 274 274 274 273
262 261 261 260 260 260 259 258 257 257 257 256 256 256 257 256 255 254 253 253 253 253 253 253 254 255 255 256 257 257 257 258 258 258 258 258 258 259 260 261 263 263 264 265 266 266 267 269 271 269 272 274 275 276 277 274 274 276 276 275 274 274
261 260 260 260 259 259 259 257 257 257 256 256 256 256 256 255 254 253 252 252 252 252 252 253 253 254 255 256 256 256 256 257 257 257 257 258 258 259 260 262 263 263 264 265 265 266 268 268 269 271 270 273 275 276 277 278 277 279 277 276 275 275
261 260 259 259 259 259 258 257 257 256 256 257 256 256 255 253 253 251 250 250 251 251 252 253 253 254 255 255 256 255 255 256 256 257 257 258 259 260 261 261 262 264 264 264 265 266 267 268 268 270 272 271 274 276 277 278 278 279 276 276 276 277
260 259 258 258 258 258 257 257 256 256 255 256 255 255 254 252 250 249 249 249 249 250 251 252 253 254 254 255 255 255 255 255 256 255 256 258 259 260 260 261 263 264 263 264 264 265 266 267 267 267 269 273 274 275 276 277 277 278 278 276 276 278
259 258 257 257 257 257 257 256 257 255 256 255 255 254 253 250 248 249 248 248 249 249 250 251 253 254 255 254 255 255 255 255 255 255 256 258 259 260 260 261 264 264 264 264 264 265 266 266 266 267 267 270 272 273 274 276 276 276 277 278 277 279
258 257 257 256 257 256 256 256 256 256 255 254 254 253 251 248 249 249 248 247 248 249 250 251 253 254 254 254 254 254 255 255 255 256 257 258 259 260 261 263 264 264 264 263 264 265 265 265 266 266 267 269 270 270 271 272 272 275 276 275 276 278
258 257 257 256 257 256 255 255 255 254 254 254 253 250 249 249 250 248 246 246 247 249 250 251 255 254 253 253 254 254 253 254 255 256 257 258 259 260 262 263 264 263 264 264 264 264 265 265 265 266 267 269 269 270 271 271 271 272 273 273 275 277
258 257 257 257 257 255 255 254 254 254 254 253 251 249 249 249 249 246 246 247 248 249 252 252 251 252 252 253 253 254 255 254 256 258 258 260 261 263 264 264 264 265 265 265 264 264 264 264 265 266 272 270 273 270 270 270 270 272 272 274 278 278
258 258 257 257 256 255 254 253 253 253 254 252 251 249 248 248 248 245 246 248 248 249 251 251 251 250 252 251 252 253 254 258 263 261 260 260 265 268 269 269 265 266 266 266 266 266 265 265 266 272 273 273 273 273 274 274 274 275 274 275 278 281
258 258 257 256 255 254 253 253 253 252 253 252 252 250 248 248 247 246 247 248 247 250 252 251 251 252 252 251 252 252 252 253 255 262 264 265 266 267 268 269 269 270 270 267 265 268 271 271 272 272 272 272 272 272 273 273 273 274 275 274 272 280
257 257 256 256 255 254 253 252 252 252 252 251 250 250 249 248 248 246 246 247 248 251 252 252 252 252 251 251 252 252 252 251 251 253 260 264 264 266 267 267 268 269 269 270 269 268 266 269 270 272 271 271 271 271 271 271 271 273 273 272 271 266
258 257 256 255 254 253 253 252 251 251 251 250 250 249 247 247 247 246 246 247 249 251 252 252 251 251 251 250 251 251 252 251 251 250 251 254 261 264 264 265 266 267 268 269 269 271 271 270 270 271 271 271 270 270 269 270 269 271 271 269 263 262
258 257 255 254 253 253 252 252 252 251 251 250 249 248 247 246 246 246 245 247 249 251 251 251 251 251 250 250 251 251 251 251 251 250 251 251 251 253 258 261 264 265 266 267 268 269 270 270 270 270 270 270 269 269 268 267 264 269 270 267 260 261
256 255 254 254 253 253 253 251 251 251 249 247 246 246 246 245 246 245 249 251 252 250 251 251 252 251 250 251 251 251 251 250 251 251 251 250 250 250 251 252 254 259 264 263 263 267 269 269 269 269 269 269 269 267 266 263 259 258 258 259 260 260
255 254 254 253 253 253 251 250 251 249 247 246 245 246 246 245 244 247 249 249 250 250 251 250 248 249 250 251 251 250 250 251 250 250 250 250 250 250 250 251 252 253 259 264 264 267 267 267 267 268 268 267 267 266 263 253 255 257 257 258 259 260
Wind_Speed
14 13 11 9 9 8 8 7 6 4 4 3 3 3 2 2 2 2 2 3 4 4 4 6 6 6 7 7 8 9 9 11 11 12 11 10 10 11 12 11 13 12 14 13 12 13 12 11 13 11 12 11 12 13 12 13 12 13 15 12 15 13
12 13 12 11 9 8 7 7 5 5 4 3 2 1 1 1 2 2 3 4 4 5 5 5 6 6 7 7 8 9 10 11 11 12 12 12 9 11 12 12 12 14 13 12 12 13 13 13 11 11 12 11 12 14 14 13 15 18 17 14 12 14
11 10 9 9 7 6 6 6 6 5 4 3 2 2 2 2 2 2 4 3 3 5 6 6 6 7 7 8 8 10 10 10 11 11 11 10 12 10 12 12 13 14 13 14 16 14 13 16 15 11 15 14 14 13 14 15 16 17 17 16 16 14
9 8 7 6 8 7 7 5 5 5 4 3 2 2 1 1 2 3 3 3 4 5 6 6 6 7 7 8 9 10 10 10 10 11 11 12 11 10 12 14 14 12 14 17 16 18 16 14 20 17 14 17 16 17 14 15 17 18 16 13 18 15
11 11 10 9 10 9 7 6 5 5 4 3 2 2 2 2 3 2 2 4 5 6 6 6 7 7 8 9 9 10 11 10 11 10 11 11 11 11 11 14 14 16 15 18 17 18 18 17 17 17 16 18 18 18 17 16 17 18 19 18 15 14
9 10 10 10 9 7 7 6 5 4 4 3 2 2 2 2 2 2 3 4 5 5 6 7 7 8 8 9 8 10 10 10 10 9 11 11 11 13 13 13 14 16 17 16 20 16 19 18 18 18 17 18 19 18 19 18 18 18 18 19 18 15
13 13 11 10 9 7 7 6 5 5 4 3 2 2 2 1 2 2 3 3 6 6 7 8 8 9 9 9 9 11 12 11 11 11 12 13 13 13 13 14 14 14 16 15 18 19 19 19 18 19 19 18 18 18 18 18 18 17 18 18 16 15
12 10 10 9 9 8 7 6 6 5 4 3 2 2 1 2 1 2 3 4 6 6 7 8 8 8 9 10 10 10 10 10 11 11 11 10 14 14 14 15 14 14 17 18 18 19 21 19 19 19 20 19 19 18 18 18 18 18 18 17 18 17
14 12 10 9 9 7 7 6 5 5 4 3 2 1 1 1 1 3 4 5 6 7 8 8 8 9 9 9 9 9 10 11 11 11 12 12 13 14 15 15 16 15 18 19 19 20 19 20 19 19 19 19 19 19 19 18 18 18 17 17 17 17
12 11 11 10 9 8 7 6 6 5 4 3 2 1 1 1 2 3 4 5 6 7 8 8 8 9 9 9 10 10 10 10 11 11 12 12 14 15 16 16 16 20 18 19 19 19 18 19 19 19 18 18 18 18 18 18 18 18 17 17 17 18
14 12 11 10 9 9 8 7 5 4 3 3 1 1 1 1 2 4 4 5 6 7 7 8 8 8 9 10 10 10 11 11 12 12 12 13 13 13 14 17 20 18 20 21 18 19 19 17 17 16 15 16 17 17 17 18 18 18 17 17 18 17
12 12 11 10 10 9 8 7 6 4 4 3 2 1 0 3 2 3 5 6 7 7 7 8 8 8 9 10 10 11 11 12 12 12 13 13 12 13 14 14 14 19 19 18 19 18 16 16 13 18 29 26 19 19 16 16 16 16 16 16 16 16
11 11 12 11 11 10 8 7 5 5 3 3 2 1 1 2 2 3 4 6 6 7 7 7 7 8 9 9 10 10 11 12 12 12 13 14 14 14 14 15 18 16 16 19 18 19 17 17 16 27 28 30 32 23 20 19 17 18 18 15 17 16
14 14 13 12 10 10 9 8 6 5 4 4 2 1 1 2 2 4 5 6 6 6 6 6 8 8 8 9 9 10 11 11 12 12 13 14 15 14 13 14 15 16 17 16 17 18 17 17 24 30 31 32 32 28 21 18 17 15 15 16 15 16
16 14 12 11 11 10 9 8 7 6 5 4 2 1 1 2 2 4 5 5 5 6 6 6 7 7 8 8 10 10 11 12 12 13 14 15 14 13 15 16 16 16 16 16 18 18 18 18 26 31 33 32 32 32 26 18 15 18 15 17 15 15
11 11 13 12 10 9 8 7 6 6 4 4 2 1 1 2 3 4 5 5 5 5 6 6 6 7 8 8 10 10 11 12 13 12 13 14 14 14 15 15 17 16 16 17 18 18 19 20 25 32 32 32 32 31 27 17 19 18 17 17 15 15
14 12 12 12 11 9 9 8 6 6 4 4 2 1 1 2 3 4 5 5 5 5 4 5 6 7 9 9 10 11 11 12 13 14 12 11 13 15 14 15 16 16 16 16 16 16 19 18 30 32 34 33 32 30 28 17 16 15 14 13 14 16
20 19 14 10 10 9 8 7 7 6 5 3 3 2 1 2 3 5 4 3 5 3 5 5 6 7 9 10 11 11 12 12 12 14 13 12 12 12 12 13 13 15 16 16 16 16 18 18 32 33 32 32 30 31 18 15 16 15 12 12 13 15
17 15 12 11 10 10 8 7 7 6 5 4 3 2 3 2 3 3 4 4 5 5 5 5 6 8 9 10 11 12 12 13 14 12 11 13 12 12 13 13 13 13 15 17 16 17 17 18 25 32 33 32 31 24 14 13 11 10 12 14 13 13
15 10 11 13 10 8 8 8 7 6 5 4 3 2 3 2 2 4 3 4 3 5 5 6 6 8 9 9 11 12 12 12 11 11 10 12 13 14 13 13 14 13 13 15 17 15 17 18 25 33 32 30 29 25 17 14 12 10 12 13 12 11
12 13 11 11 11 9 8 8 7 6 5 4 4 3 2 2 2 2 3 4 4 5 4 5 6 7 8 9 10 11 13 12 12 11 10 10 11 13 12 12 13 14 13 13 16 24 24 19 24 30 27 28 29 24 16 13 12 8 10 12 12 12
16 11 11 10 10 10 10 8 7 6 6 4 4 3 2 1 2 3 3 4 4 3 4 4 5 7 8 10 11 11 10 10 11 11 12 11 10 12 12 12 12 15 15 15 15 17 17 17 16 18 28 29 30 30 19 13 13 12 12 12 10 8
10 12 11 10 10 9 8 7 7 6 5 5 4 3 2 1 1 2 3 3 4 4 5 5 4 8 9 9 10 10 10 9 11 12 12 12 11 11 12 14 14 14 15 14 15 14 14 15 16 17 30 29 29 30 25 14 15 15 12 12 11 10
11 11 10 9 10 8 8 8 7 6 5 5 4 2 2 1 1 1 2 3 4 4 5 5 6 6 8 9 8 10 10 9 9 10 11 11 11 14 14 14 14 14 15 14 13 15 17 15 21 20 25 29 30 29 32 19 15 17 13 8 8 11
11 10 11 10 9 8 7 8 8 6 5 5 4 3 2 1 0 1 1 2 4 5 6 6 7 8 7 8 9 9 11 10 9 10 10 11 12 13 14 14 16 16 15 15 14 14 15 16 16 24 22 27 30 32 31 31 24 27 18 13 9 10
11 11 10 9 8 7 7 7 8 6 6 5 4 3 2 1 1 0 1 2 4 5 6 7 7 7 7 7 9 8 9 10 10 10 9 11 11 11 13 15 14 13 14 15 15 14 14 16 17 20 26 25 32 31 31 30 29 28 18 16 13 12
14 12 11 8 8 6 6 5 8 8 6 5 4 3 3 1 1 1 3 3 4 5 6 8 7 7 6 6 7 9 9 10 9 9 9 9 10 11 12 11 10 14 14 16 18 18 17 16 16 16 21 30 30 30 30 30 30 28 26 17 12 12
11 12 12 9 8 7 6 5 6 9 7 6 4 4 2 2 2 3 4 3 3 4 6 8 9 8 6 6 5 6 7 8 10 9 10 9 10 12 13 10 12 15 16 16 19 18 19 20 20 18 17 18 21 23 29 31 28 26 26 23 17 22
11 11 11 11 9 7 6 6 5 5 6 5 5 4 3 3 4 4 4 4 3 4 4 5 6 8 9 7 5 4 6 8 8 9 9 9 10 10 8 10 13 14 15 16 15 16 18 18 16 16 16 15 16 16 19 19 18 24 22 14 11 13
11 12 11 10 9 8 7 6 6 6 6 5 5 5 4 5 5 5 3 3 3 4 4 4 7 8 8 9 8 7 5 4 6 8 10 10 11 9 10 10 12 13 11 12 13 15 17 16 15 16 18 18 19 18 17 14 14 14 12 15 14 13
11 11 12 10 9 8 7 7 6 6 6 5 6 5 5 6 4 4 2 2 2 4 3 4 4 5 6 8 10 8 5 6 8 8 9 9 8 11 13 14 11 10 11 9 13 14 12 14 16 18 26 24 30 24 21 18 17 15 16 20 26 18
12 13 11 9 9 8 8 8 7 6 6 5 5 5 7 6 5 4 2 1 2 4 4 4 5 4 5 5 5 9 13 12 14 10 9 9 18 23 23 20 14 16 16 12 13 14 17 17 19 33 37 34 34 34 34 31 30 28 25 30 35 15
11 13 10 9 9 8 8 8 7 6 5 5 4 6 8 6 6 3 1 1 2 3 4 5 5 5 5 4 4 4 4 10 14 16 17 18 21 22 23 22 24 26 27 20 15 17 31 31 34 36 36 36 35 35 34 33 31 31 31 33 22 10
12 13 12 10 9 9 8 7 6 6 5 5 4 5 7 6 6 4 1 1 2 4 4 4 4 5 5 5 5 3 5 5 7 13 19 21 19 21 22 22 24 26 27 28 26 21 16 27 34 36 36 36 36 35 34 32 30 30 31 29 25 14
10 9 9 9 10 9 8 8 6 6 5 6 5 6 8 6 5 3 0 1 2 3 5 4 4 3 4 5 5 6 5 6 8 9 12 16 21 21 19 19 23 26 27 27 29 30 30 29 31 36 36 36 36 37 34 29 29 28 33 33 21 12
9 8 9 9 10 9 8 8 7 6 5 5 6 7 7 6 4 2 1 1 2 3 3 4 3 4 5 4 5 4 6 6 6 7 9 11 13 14 17 19 22 23 27 26 28 29 32 32 33 34 35 34 36 37 36 29 19 29 32 25 13 13
12 9 9 11 10 9 8 9 7 6 6 6 7 8 7 6 4 2 1 4 4 3 4 3 3 4 4 4 4 4 6 6 6 7 8 9 10 12 13 13 16 20 25 22 22 27 33 32 31 33 33 34 34 37 36 28 18 21 19 18 12 12
9 9 10 9 8 9 12 10 7 7 8 7 8 8 7 6 4 2 0 1 2 3 3 2 3 3 4 3 4 4 4 5 6 7 7 7 8 9 10 11 12 12 18 28 25 27 29 31 30 31 32 32 34 35 35 20 16 15 16 11 13 14
Wind_Direction
190 184 178 175 175 172 168 162 149 143 153 157 156 200 214 228 244 268 281 269 271 280 296 299 299 291 289 293 296 299 298 297 296 295 290 289 289 291 293 293 293 292 293 291 287 286 284 279 276 273 275 270 271 272 270 266 262 259 261 255 256 255
187 179 172 171 169 163 164 148 138 148 156 150 163 174 197 236 272 271 277 268 277 294 292 288 286 290 294 300 303 300 297 294 295 294 293 290 289 288 291 291 291 292 294 293 290 291 290 288 286 283 277 272 266 273 271 266 264 266 266 265 258 263
181 176 169 168 164 157 148 148 153 152 142 155 161 185 221 234 251 253 256 272 282 287 289 293 299 301 303 300 297 297 295 295 292 291 290 292 289 294 292 292 293 296 293 296 297 294 294 295 291 289 288 281 277 273 273 274 270 266 266 264 263 261
174 166 163 156 152 152 151 146 128 133 153 160 172 171 199 228 259 244 271 284 284 286 296 300 304 303 302 300 300 297 296 293 293 293 293 291 291 292 292 296 298 297 299 298 297 295 291 287 291 289 286 283 282 280 279 278 277 274 270 263 264 262
176 167 162 162 162 161 153 146 146 151 153 152 179 166 226 228 239 260 282 288 292 298 303 308 307 305 301 300 299 298 298 296 294 292 292 293 296 296 297 299 300 299 300 296 293 294 291 289 288 287 287 283 281 279 279 279 278 277 274 267 261 259
165 160 169 169 162 153 157 152 142 142 151 161 169 190 229 235 257 280 280 287 295 304 309 309 303 301 301 301 302 298 296 294 290 293 295 299 302 302 300 297 298 301 298 296 293 291 290 290 290 286 284 282 279 278 278 279 278 277 276 271 266 260
178 180 170 166 161 154 150 147 149 149 161 152 176 204 215 248 272 281 290 304 310 311 308 300 302 298 296 293 290 288 291 294 300 300 300 301 302 304 306 302 302 295 293 291 293 292 292 289 287 287 285 282 280 276 276 277 277 274 274 277 277 275
179 167 168 162 159 155 150 147 147 151 153 167 169 187 227 275 265 292 315 317 311 304 295 289 289 295 295 295 294 290 289 293 300 304 304 305 304 307 302 300 300 298 295 293 291 291 291 289 286 284 284 282 280 277 273 273 273 274 273 269 268 267
186 174 160 159 154 149 149 148 150 152 155 160 170 158 243 268 312 326 325 317 304 293 289 292 297 299 296 291 291 295 301 303 307 311 309 309 305 304 305 301 296 294 295 291 291 289 289 287 283 281 280 279 277 275 272 271 271 272 273 270 270 268
173 165 162 152 150 141 142 146 147 154 154 165 163 182 242 301 350 331 322 311 297 288 290 297 300 299 296 298 302 304 304 306 309 310 310 310 306 304 301 299 299 300 294 293 290 287 286 285 282 278 278 275 271 270 268 267 268 268 268 268 266 267
177 165 158 154 145 149 147 145 141 140 142 140 172 199 294 32 359 333 317 303 292 291 298 301 302 299 298 305 306 309 313 315 313 310 309 304 300 297 295 299 296 291 294 289 285 288 284 282 284 280 275 274 271 265 264 264 264 263 263 261 261 259
166 161 155 153 157 153 152 151 150 153 155 173 198 195 126 77 354 318 306 296 294 296 300 302 299 302 308 310 315 316 317 315 314 310 308 304 298 297 295 286 285 291 290 295 293 289 287 282 281 278 275 275 276 271 266 264 261 261 259 260 259 255
163 158 158 162 159 159 153 150 148 141 155 180 178 180 112 60 319 290 279 280 289 297 298 299 302 307 311 315 315 317 317 315 313 309 306 305 303 300 297 292 298 299 301 299 298 298 294 288 282 284 284 282 280 278 275 270 269 266 260 258 266 268
172 168 165 161 157 152 151 151 152 152 170 172 158 162 49 327 289 282 278 278 286 290 296 302 307 312 316 321 319 317 315 311 310 309 308 307 306 304 300 299 303 305 305 302 300 299 298 296 295 293 291 288 286 283 279 275 269 264 263 257 255 262
174 165 156 156 156 154 154 147 148 165 168 150 155 100 294 279 272 277 278 282 282 288 305 307 315 320 322 324 319 315 314 313 311 311 312 310 307 306 313 311 309 307 307 305 303 300 299 298 296 297 295 293 289 286 284 278 270 268 261 262 253 255
159 160 159 152 145 137 129 136 144 141 135 131 140 152 231 268 280 275 275 277 286 296 306 314 325 324 323 320 318 316 315 315 311 310 307 308 312 314 311 311 310 309 308 308 304 301 298 295 295 296 298 298 295 290 286 282 278 268 257 250 246 252
156 144 138 136 134 132 135 137 137 134 131 142 147 173 199 251 272 275 276 290 295 304 316 331 332 329 324 323 320 317 313 311 311 312 313 312 314 315 314 315 313 309 306 302 299 298 298 295 295 298 300 301 298 294 291 284 280 273 263 253 247 248
160 149 136 132 130 135 138 139 136 134 140 139 151 172 236 247 258 270 281 290 308 318 334 338 334 331 326 322 321 317 313 313 313 314 314 312 309 307 306 305 302 302 302 299 299 299 297 294 298 300 301 302 301 300 295 286 279 268 255 249 251 250
129 121 125 130 133 135 138 137 131 131 133 145 164 167 232 242 250 272 287 290 312 332 338 342 335 329 324 321 318 314 313 313 314 313 314 310 309 309 308 304 301 299 299 301 301 302 298 293 297 302 305 304 303 304 294 290 277 253 246 252 249 253
100 112 126 128 127 131 132 131 134 131 143 154 172 189 226 222 244 279 288 305 324 331 339 339 333 325 320 317 312 309 308 306 303 305 310 308 310 310 307 304 301 299 299 301 303 301 300 299 300 303 303 304 304 309 311 305 294 258 254 250 238 237
126 124 116 120 129 138 135 133 134 141 152 158 179 200 210 220 264 287 311 319 330 327 334 329 325 317 311 308 303 305 306 308 309 307 306 303 302 301 300 300 300 300 302 301 302 306 307 298 298 298 301 307 312 313 307 302 296 267 252 246 242 234
118 116 126 135 137 137 137 140 144 149 149 159 173 196 198 221 264 306 315 318 323 324 325 323 316 309 306 302 301 300 302 304 306 308 309 307 305 302 303 300 300 303 306 309 309 308 300 291 291 301 314 316 314 313 311 303 302 296 279 260 240 233
122 130 135 133 135 137 142 145 144 147 152 164 178 185 179 209 289 319 322 326 324 323 321 322 312 305 298 292 295 299 303 307 308 310 311 311 309 305 303 304 305 307 308 311 311 301 303 303 305 313 318 315 313 313 314 306 301 300 285 276 253 233
112 111 116 125 135 140 147 150 145 140 154 175 182 163 171 149 313 336 332 332 330 321 322 317 311 297 294 296 299 306 305 305 304 305 310 308 309 309 309 311 313 313 314 315 317 320 313 307 320 320 316 315 314 315 314 312 302 299 295 275 237 238
129 129 131 138 140 147 154 146 136 146 167 175 162 153 147 151 63 354 344 335 333 332 322 315 305 304 300 301 304 306 307 309 312 314 312 310 311 311 314 318 321 320 321 322 320 323 323 325 322 320 317 317 316 315 314 314 313 311 310 300 271 251
123 126 132 140 148 152 155 149 138 157 168 157 144 153 136 139 69 29 11 3 345 331 319 311 306 299 300 301 307 306 304 312 319 320 318 315 313 317 322 322 317 322 328 324 322 326 328 329 324 321 320 317 316 317 320 319 316 312 306 300 292 280
137 132 133 144 146 148 143 150 151 158 153 151 147 160 151 132 127 82 45 18 353 329 314 311 306 307 301 303 304 311 314 317 327 323 321 317 319 323 319 310 310 331 329 330 331 329 331 330 326 323 318 316 315 320 323 322 318 314 311 303 290 281
117 130 135 143 149 142 149 162 166 150 152 148 150 149 131 142 102 63 38 20 351 320 313 314 314 311 309 304 300 299 309 318 324 324 320 322 324 325 319 302 327 334 333 330 330 330 332 334 333 326 319 310 318 324 324 323 321 318 313 306 289 283
133 141 142 143 155 153 159 161 157 143 136 150 149 137 139 119 89 71 43 13 331 312 307 313 310 317 318 311 303 295 309 323 320 320 320 323 322 305 293 318 333 333 333 331 323 324 330 332 327 326 320 324 327 328 328 328 325 325 323 312 299 292
142 145 145 145 160 160 161 158 152 146 144 143 142 143 134 99 71 70 35 334 321 308 306 304 307 313 311 314 320 326 322 319 312 319 327 329 326 316 324 326 334 333 316 323 324 321 326 331 333 334 334 337 336 333 333 329 325 323 321 318 307 298
142 144 142 145 155 158 156 157 150 150 153 147 151 156 115 95 81 75 38 328 321 314 302 295 290 294 299 310 324 324 320 320 322 326 316 316 306 325 333 333 329 330 321 296 326 324 322 332 338 338 343 340 340 340 339 335 333 329 328 320 312 296
137 143 139 145 153 156 155 151 150 151 147 143 159 151 107 104 96 81 46 349 319 310 308 312 308 293 296 310 322 327 326 325 339 340 331 321 334 339 340 342 338 340 339 330 334 335 345 340 338 341 345 346 347 345 345 343 340 340 340 336 326 295
137 117 137 150 154 155 154 145 147 149 150 153 147 126 110 107 91 78 59 360 327 307 311 310 309 305 310 317 321 316 318 324 328 338 347 343 338 339 341 344 344 345 348 348 340 338 348 347 347 350 350 351 351 349 348 349 346 352 354 357 350 15
153 158 156 154 155 151 148 140 144 149 146 147 136 117 107 101 102 94 49 332 307 305 306 297 295 302 320 328 323 322 328 329 328 326 335 346 346 340 339 343 346 348 350 351 350 346 347 352 354 355 355 355 355 354 350 352 348 357 5 8 20 26
152 147 146 149 151 144 142 136 145 150 152 149 132 117 104 107 105 112 71 307 303 298 300 302 299 317 326 327 327 333 339 341 341 337 332 333 339 342 342 345 348 350 351 350 350 352 0 358 356 357 357 359 359 358 353 352 350 1 13 16 21 12
129 137 143 146 146 139 138 143 152 160 154 146 126 110 110 110 115 134 156 227 270 298 298 301 309 327 327 308 319 327 340 341 341 334 329 331 333 338 342 344 348 350 349 349 351 354 1 359 359 358 360 1 3 2 360 353 344 9 16 22 17 8
137 141 149 147 139 140 143 143 152 151 146 137 124 111 104 109 109 118 259 278 291 278 283 293 320 320 313 306 330 338 346 339 336 338 339 341 337 337 336 333 335 340 347 351 349 354 360 358 358 360 1 3 7 8 1 357 6 11 355 4 3 5
139 139 148 145 137 137 129 141 154 151 153 132 122 111 109 114 103 102 136 285 288 280 267 316 316 320 307 315 335 336 337 333 338 342 339 331 329 327 327 326 334 329 332 347 348 351 358 356 356 357 0 5 10 12 10 8 352 356 358 346 0 3